| time (UTC) | temp F | wind direction | speed MPH | gust MPH | rain 1hr in | rain 24hr in | rain mn in | humidity % | barometer mb |
| 20260502130104 | 58 | 96 | 1.0 | 3.0 | 0.00 | 0.00 | 0.00 | 18 | 1012.6 |
| 20260502123105 | 59 | 344 | 0.0 | 1.0 | 0.00 | 0.00 | 0.00 | 17 | 1012.2 |
| 20260502121609 | 59 | 74 | 1.0 | 3.0 | 0.00 | 0.00 | 0.00 | 16 | 1012.2 |
| 20260502120104 | 59 | 343 | 0.0 | 2.0 | 0.00 | 0.00 | 0.00 | 17 | 1012.0 |
| 20260502114558 | 59 | 112 | 1.0 | 2.0 | 0.00 | 0.00 | 0.00 | 16 | 1012.0 |
| 20260502113059 | 59 | 97 | 0.0 | 3.0 | 0.00 | 0.00 | 0.00 | 16 | 1012.0 |
| 20260502111602 | 59 | 98 | 0.0 | 2.0 | 0.00 | 0.00 | 0.00 | 16 | 1011.9 |
| 20260502110001 | 60 | 98 | 0.0 | 3.0 | 0.00 | 0.00 | 0.00 | 16 | 1011.9 |
| 20260502104558 | 60 | 101 | 0.0 | 2.0 | 0.00 | 0.00 | 0.00 | 15 | 1011.9 |
| 20260502103106 | 61 | 60 | 0.0 | 2.0 | 0.00 | 0.00 | 0.00 | 16 | 1011.9 |
| 20260502101621 | 62 | 59 | 1.0 | 2.0 | 0.00 | 0.00 | 0.00 | 15 | 1011.8 |
| 20260502100116 | 63 | 182 | 1.0 | 4.0 | 0.00 | 0.00 | 0.00 | 15 | 1011.8 |
| 20260502080107 | 65 | 103 | 0.0 | 2.0 | 0.00 | 0.00 | 0.00 | 13 | 1012.1 |
| 20260502071502 | 68 | 219 | 0.0 | 2.0 | 0.00 | 0.00 | 0.00 | 13 | 1012.0 |
| 20260502070002 | 70 | 80 | 0.0 | 2.0 | 0.00 | 0.00 | 0.00 | 11 | 1011.7 |
| 20260502064501 | 71 | 5 | 0.0 | 2.0 | 0.00 | 0.00 | 0.00 | 11 | 1011.6 |
| 20260502063002 | 72 | 52 | 0.0 | 3.0 | 0.00 | 0.00 | 0.00 | 11 | 1011.4 |
| 20260502061501 | 72 | 28 | 1.0 | 4.0 | 0.00 | 0.00 | 0.00 | 11 | 1011.2 |
| 20260502060001 | 72 | 329 | 1.0 | 4.0 | 0.00 | 0.00 | 0.00 | 11 | 1011.0 |
| 20260502054500 | 72 | 40 | 0.0 | 3.0 | 0.00 | 0.00 | 0.00 | 12 | 1011.0 |
| 20260502053003 | 73 | 34 | 2.0 | 6.0 | 0.00 | 0.00 | 0.00 | 12 | 1010.9 |
| 20260502051501 | 73 | 30 | 0.0 | 4.0 | 0.00 | 0.00 | 0.00 | 11 | 1010.7 |
| 20260502050001 | 73 | 355 | 2.0 | 4.0 | 0.00 | 0.00 | 0.00 | 11 | 1010.6 |
| 20260502044502 | 73 | 9 | 0.0 | 1.0 | 0.00 | 0.00 | 0.00 | 11 | 1010.4 |
| 20260502043002 | 73 | 105 | 0.0 | 2.0 | 0.00 | 0.00 | 0.00 | 11 | 1010.2 |
| 20260502041502 | 74 | 108 | 0.0 | 2.0 | 0.00 | 0.00 | 0.00 | 11 | 1010.0 |
| 20260502040010 | 75 | 108 | 0.0 | 3.0 | 0.00 | 0.00 | 0.00 | 11 | 1009.8 |
| 20260502034501 | 75 | 32 | 1.0 | 4.0 | 0.00 | 0.00 | 0.00 | 10 | 1009.6 |
| 20260502033000 | 76 | 98 | 2.0 | 4.0 | 0.00 | 0.00 | 0.00 | 10 | 1009.4 |
| 20260502031501 | 77 | 78 | 0.0 | 3.0 | 0.00 | 0.00 | 0.00 | 10 | 1009.2 |
| 20260502030002 | 77 | 69 | 0.0 | 6.0 | 0.00 | 0.00 | 0.00 | 9 | 1008.9 |
| 20260502024502 | 78 | 179 | 1.0 | 10.0 | 0.00 | 0.00 | 0.00 | 9 | 1008.7 |
| 20260502023001 | 78 | 279 | 5.0 | 13.0 | 0.00 | 0.00 | 0.00 | 9 | 1008.6 |
| 20260502021500 | 78 | 355 | 4.0 | 13.0 | 0.00 | 0.00 | 0.00 | 9 | 1008.5 |
| 20260502020001 | 79 | 128 | 3.0 | 8.0 | 0.00 | 0.00 | 0.00 | 9 | 1008.4 |
| 20260502014602 | 79 | 301 | 1.0 | 6.0 | 0.00 | 0.00 | 0.00 | 10 | 1008.2 |
| 20260502013101 | 80 | 348 | 2.0 | 8.0 | 0.00 | 0.00 | 0.00 | 10 | 1008.2 |
| 20260502011611 | 80 | 319 | 2.0 | 9.0 | 0.00 | 0.00 | 0.00 | 10 | 1008.2 |
| 20260502011503 | 80 | 345 | 3.0 | 10.0 | 0.00 | 0.00 | 0.00 | 10 | 1008.1 |
| 20260502010100 | 81 | 5 | 2.0 | 8.0 | 0.00 | 0.00 | 0.00 | 11 | 1008.2 |
| 20260502004607 | 81 | 63 | 3.0 | 6.0 | 0.00 | 0.00 | 0.00 | 11 | 1008.1 |
| 20260502003059 | 82 | 338 | 2.0 | 8.0 | 0.00 | 0.00 | 0.00 | 10 | 1008.1 |
| 20260502001601 | 81 | 94 | 4.0 | 10.0 | 0.00 | 0.00 | 0.00 | 10 | 1008.3 |
| 20260502000115 | 81 | 5 | 2.0 | 10.0 | 0.00 | 0.00 | 0.00 | 11 | 1008.4 |
| 20260501234601 | 80 | 11 | 2.0 | 10.0 | 0.00 | 0.00 | 0.00 | 11 | 1008.5 |
| 20260501233101 | 80 | 91 | 3.0 | 9.0 | 0.00 | 0.00 | 0.00 | 11 | 1008.5 |
| 20260501231503 | 81 | 45 | 2.0 | 10.0 | 0.00 | 0.00 | 0.00 | 11 | 1008.4 |
| 20260501230002 | 81 | 88 | 4.0 | 13.0 | 0.00 | 0.00 | 0.00 | 11 | 1008.5 |
| 20260501224606 | 83 | 20 | 3.0 | 7.0 | 0.00 | 0.00 | 0.00 | 11 | 1008.7 |
| 20260501223125 | 84 | 49 | 3.0 | 8.0 | 0.00 | 0.00 | 0.00 | 11 | 1008.8 |
| 20260501221618 | 85 | 314 | 1.0 | 6.0 | 0.00 | 0.00 | 0.00 | 10 | 1009.0 |
| 20260501220101 | 83 | 348 | 2.0 | 11.0 | 0.00 | 0.00 | 0.00 | 11 | 1009.3 |
| 20260501220002 | 83 | 331 | 3.0 | 11.0 | 0.00 | 0.00 | 0.00 | 11 | 1009.3 |
| 20260501214603 | 84 | 355 | 6.0 | 10.0 | 0.00 | 0.00 | 0.00 | 11 | 1009.5 |
| 20260501213100 | 83 | 9 | 8.0 | 13.0 | 0.00 | 0.00 | 0.00 | 11 | 1009.6 |
| 20260501211601 | 83 | 25 | 1.0 | 8.0 | 0.00 | 0.00 | 0.00 | 11 | 1009.9 |
| 20260501210100 | 83 | 15 | 3.0 | 12.0 | 0.00 | 0.00 | 0.00 | 12 | 1010.0 |
| 20260501204600 | 83 | 20 | 6.0 | 12.0 | 0.00 | 0.00 | 0.00 | 11 | 1010.2 |
| 20260501203101 | 82 | 311 | 2.0 | 13.0 | 0.00 | 0.00 | 0.00 | 11 | 1010.2 |
| 20260501201600 | 83 | 5 | 4.0 | 9.0 | 0.00 | 0.00 | 0.00 | 11 | 1010.4 |
| 20260501200100 | 82 | 76 | 3.0 | 12.0 | 0.00 | 0.00 | 0.00 | 12 | 1010.6 |
| 20260501194600 | 81 | 320 | 2.0 | 11.0 | 0.00 | 0.00 | 0.00 | 12 | 1010.7 |
| 20260501194501 | 81 | 214 | 2.0 | 11.0 | 0.00 | 0.00 | 0.00 | 12 | 1010.7 |
| 20260501193100 | 81 | 355 | 3.0 | 11.0 | 0.00 | 0.00 | 0.00 | 12 | 1010.9 |
| 20260501191600 | 81 | 37 | 5.0 | 13.0 | 0.00 | 0.00 | 0.00 | 12 | 1011.0 |
| 20260501190116 | 80 | 22 | 5.0 | 12.0 | 0.00 | 0.00 | 0.00 | 12 | 1011.3 |
| 20260501190004 | 80 | 30 | 6.0 | 12.0 | 0.00 | 0.00 | 0.00 | 12 | 1011.2 |
| 20260501184559 | 80 | 326 | 4.0 | 11.0 | 0.00 | 0.00 | 0.00 | 11 | 1011.4 |
| 20260501183105 | 79 | 94 | 4.0 | 10.0 | 0.00 | 0.00 | 0.00 | 13 | 1011.7 |
| 20260501181559 | 79 | 360 | 4.0 | 9.0 | 0.00 | 0.00 | 0.00 | 12 | 1011.8 |
| 20260501181500 | 79 | 355 | 3.0 | 9.0 | 0.00 | 0.00 | 0.00 | 12 | 1011.8 |
| 20260501180100 | 78 | 324 | 3.0 | 13.0 | 0.00 | 0.00 | 0.00 | 13 | 1011.9 |
| 20260501174559 | 77 | 360 | 5.0 | 10.0 | 0.00 | 0.00 | 0.00 | 13 | 1011.9 |
| 20260501173102 | 76 | 339 | 4.0 | 12.0 | 0.00 | 0.00 | 0.00 | 13 | 1012.0 |
| 20260501171558 | 75 | 62 | 5.0 | 14.0 | 0.00 | 0.00 | 0.00 | 13 | 1012.1 |
| 20260501170058 | 76 | 15 | 6.0 | 15.0 | 0.00 | 0.00 | 0.00 | 13 | 1012.1 |
| 20260501164603 | 74 | 50 | 4.0 | 10.0 | 0.00 | 0.00 | 0.00 | 16 | 1012.0 |
| 20260501163104 | 73 | 336 | 3.0 | 8.0 | 0.00 | 0.00 | 0.00 | 17 | 1011.9 |
| 20260501161615 | 73 | 42 | 3.0 | 8.0 | 0.00 | 0.00 | 0.00 | 18 | 1011.9 |
| 20260501160115 | 72 | 9 | 3.0 | 9.0 | 0.00 | 0.00 | 0.00 | 18 | 1011.9 |
| 20260501154631 | 71 | 340 | 3.0 | 6.0 | 0.00 | 0.00 | 0.00 | 20 | 1011.8 |
| 20260501153105 | 69 | 79 | 1.0 | 3.0 | 0.00 | 0.00 | 0.00 | 21 | 1011.7 |
| 20260501151602 | 68 | 355 | 1.0 | 4.0 | 0.00 | 0.00 | 0.00 | 21 | 1011.6 |
| 20260501150109 | 68 | 19 | 1.0 | 3.0 | 0.00 | 0.00 | 0.00 | 21 | 1011.5 |
| 20260501144614 | 67 | 71 | 1.0 | 3.0 | 0.00 | 0.00 | 0.00 | 21 | 1011.3 |